ONEWEB-0048, 45153

Orbit data source: Space-Track

ONEWEB-0048, 45153 is a payload satellite owned by One Web (UK) in LEO that was launched on Thu, 06 Feb 2020 UTC via a SOYUZ-2-1B launch vehicle from the Tyuratam Missile And Space Complex (TTMTR). Payload-class satellites include a variety of spacecraft equipped with specific instruments for various scientific and technological missions. These include communications satellites like Starlink; space stations such as the ISS; scientific satellites like the Hubble; Earth observation satellites from companies like Planet Labs, Umbra, and HawkEye 360; GPS; miniature CubeSats for education and research; and military/defense satellites.

Loading next visibility...
Identifier
45153, 2020-008Y
Orbit
LEO
Country
Flag of UKUK
Related business
Manufacturer
One Web
Mission
Operational Commercial Communications
Bus & Motor
ARROW, Unknown motor
Mass
148 kg wet, ~140 kg dry
Launch date (UTC)
2020-02-06 (6 years ago)
Launch vehicle
SOYUZ-2-1B
Launch site
Tyuratam Missile And Space Complex (TTMTR)
Object type
Payload
Rocket body
Debris
Shape & HBR
Trap Box + 2 Pan, 6.7 m
Radar Cross Section
3.464 m², Large (>1 m²)

Expand to show TLE details & history
Last TLE update: 5 hours ago

TLE from 5 hours ago
0 ONEWEB-0048
1 45153U 20008Y   26035.12938111  .00000491  00000-0  13698-2 0  9993
2 45153  87.8750  62.8066 0001789  95.8790 264.2542 13.10376321290380
Epoch: 2026-02-04T03:06Z
TLE epoch observation values (Epoch: 2026-02-04T03:06:18.527Z)
Latitude
0.00003°
Longitude
-118.07099°
Altitude
1,224.727 km
Speed
7.242 km/s
True Right ascension
04h 11m 13s
True Declination
0° 00' 00"
Sunlit
Object was in daylight at epoch
Visualization orbit readout
Latitude
Unknown
Longitude
Unknown
Altitude
Unknown
Speed
Unknown
Apparent Right ascension
Unknown
Apparent Declination
Unknown
Sunlit
N/A
Visualization observer readout
Local Sidereal Time
10:04:28
Azimuth
Unknown
Elevation
Unknown
Doppler factor
Unknown
Orbital elements
Apogee altitude
1,220.183 km
Perigee altitude
1,217.464 km
Semi-major axis
7,596.961 km
Eccentricity
0.00018
Inclination
87.875°
RAAN
62.8066°
Arg. of periapsis
95.879°
True anomaly
264.2338°
Mean anomaly
264.2542°
Eccentric anomaly
264.244°
Mean motion
3.27781 °/min
Orbital period
109.83 mins
BSTAR
0.0013698
Loading maneuver chart data...
Computing Atmospheric mass density...
Loading historical data...
Loading historical data...
Loading historical data...
Loading historical data...
Loading historical data...
Loading historical data...
Loading historical data...

Documentation

Showing up to 5 results
|